When you browse on this site, cookies collect data to enhance your experience and personalize the content and advertising you see.
Visit our Privacy Policy to learn more. By continuing to use the site, you agree to this use of cookies and data.
  • In Lithuania
  • List of Countries
  • For 7 days
  • Water Temperature
  • Satellite Maps
  • Weather Map
  • Weather Widgets
  • user-avatar
    Login

    Hourly Weather Shaki

    Today, 26 March, Tuesday

    Time Temperature Precipitation Wind Pressure Humidity
    00:00 +5°C° 0.3 mm 2 mps 736 mmHg 84%
    01:00 +5°C° 0.2 mm 2 mps 736 mmHg 85%
    02:00 +5°C° 0.2 mm 1 mps 736 mmHg 85%
    03:00 +4°C° 0 mm 2 mps 736 mmHg 87%
    04:00 +5°C° 0.1 mm 1 mps 736 mmHg 87%
    05:00 +4°C° 0.1 mm 1 mps 736 mmHg 87%
    06:00 +4°C° 0.1 mm 1 mps 736 mmHg 87%
    07:00 +5°C° 0.1 mm 1 mps 736 mmHg 83%
    08:00 +5°C° 0.1 mm 2 mps 736 mmHg 79%
    09:00 +6°C° 0.1 mm 2 mps 736 mmHg 75%
    10:00 +7°C° 0 mm 2 mps 735 mmHg 71%
    11:00 +8°C° 0 mm 2 mps 735 mmHg 68%
    12:00 +9°C° 0 mm 2 mps 735 mmHg 64%
    13:00 +10°C° 0 mm 3 mps 734 mmHg 63%
    14:00 +10°C° 0 mm 3 mps 734 mmHg 62%
    15:00 +11°C° 0 mm 3 mps 734 mmHg 60%
    16:00 +10°C° 0 mm 2 mps 734 mmHg 65%
    17:00 +9°C° 0 mm 2 mps 734 mmHg 69%
    18:00 +9°C° 0 mm 1 mps 734 mmHg 73%
    19:00 +8°C° 0 mm 1 mps 734 mmHg 75%
    20:00 +7°C° 0 mm 0 mps 734 mmHg 76%
    21:00 +6°C° 0 mm 0 mps 734 mmHg 78%
    22:00 +6°C° 0 mm 0 mps 734 mmHg 78%
    23:00 +6°C° 0 mm 0 mps 734 mmHg 78%

    Tomorrow, 27 March, Wednesday

    Time Temperature Precipitation Wind Pressure Humidity
    00:00 +6°C° 0 mm 0 mps 733 mmHg 78%
    01:00 +6°C° 0 mm 1 mps 733 mmHg 77%
    02:00 +6°C° 0 mm 1 mps 733 mmHg 76%
    03:00 +6°C° 0 mm 1 mps 733 mmHg 75%
    04:00 +6°C° 0 mm 1 mps 733 mmHg 72%
    05:00 +6°C° 0 mm 1 mps 733 mmHg 70%
    06:00 +6°C° 0 mm 1 mps 733 mmHg 67%
    07:00 +7°C° 0 mm 2 mps 732 mmHg 62%
    08:00 +9°C° 0 mm 3 mps 732 mmHg 57%
    09:00 +11°C° 0 mm 3 mps 732 mmHg 52%
    10:00 +12°C° 0 mm 3 mps 732 mmHg 49%
    11:00 +14°C° 0 mm 4 mps 732 mmHg 46%
    12:00 +15°C° 0 mm 4 mps 731 mmHg 43%
    13:00 +15°C° 0 mm 4 mps 731 mmHg 42%
    14:00 +17°C° 0 mm 4 mps 731 mmHg 41%
    15:00 +17°C° 0 mm 4 mps 731 mmHg 40%
    16:00 +16°C° 0 mm 3 mps 731 mmHg 43%
    17:00 +15°C° 0 mm 2 mps 731 mmHg 47%
    18:00 +13°C° 0 mm 2 mps 731 mmHg 50%
    19:00 +13°C° 0 mm 2 mps 732 mmHg 49%
    20:00 +12°C° 0 mm 2 mps 732 mmHg 47%
    21:00 +10°C° 0 mm 2 mps 733 mmHg 46%
    22:00 +10°C° 0 mm 2 mps 733 mmHg 44%
    23:00 +10°C° 0 mm 2 mps 733 mmHg 43%

    Day after tomorrow, 28 March, Thursday

    Time Temperature Precipitation Wind Pressure Humidity
    00:00 +9°C° 0 mm 2 mps 734 mmHg 41%
    01:00 +9°C° 0 mm 2 mps 734 mmHg 37%
    02:00 +8°C° 0 mm 2 mps 734 mmHg 33%
    03:00 +8°C° 0 mm 2 mps 734 mmHg 29%
    04:00 +8°C° 0 mm 2 mps 734 mmHg 28%
    05:00 +7°C° 0 mm 2 mps 734 mmHg 27%
    06:00 +7°C° 0 mm 2 mps 734 mmHg 26%
    07:00 +9°C° 0 mm 3 mps 735 mmHg 26%
    08:00 +11°C° 0 mm 3 mps 735 mmHg 26%
    09:00 +13°C° 0 mm 3 mps 735 mmHg 26%
    10:00 +14°C° 0 mm 3 mps 735 mmHg 26%
    11:00 +15°C° 0 mm 4 mps 735 mmHg 27%
    12:00 +17°C° 0 mm 4 mps 735 mmHg 27%
    13:00 +17°C° 0 mm 4 mps 734 mmHg 28%
    14:00 +17°C° 0 mm 3 mps 734 mmHg 29%
    15:00 +17°C° 0 mm 3 mps 734 mmHg 30%
    16:00 +16°C° 0 mm 3 mps 735 mmHg 33%
    17:00 +14°C° 0 mm 2 mps 735 mmHg 37%
    18:00 +13°C° 0 mm 2 mps 735 mmHg 40%
    19:00 +12°C° 0.2 mm 2 mps 735 mmHg 43%
    20:00 +12°C° 0.2 mm 1 mps 736 mmHg 46%
    21:00 +11°C° 0.2 mm 1 mps 737 mmHg 49%
    22:00 +11°C° 0.3 mm 1 mps 737 mmHg 53%
    23:00 +9°C° 0.3 mm 0 mps 737 mmHg 56%

    29 March, Friday

    Time Temperature Precipitation Wind Pressure Humidity
    00:00 +9°C° 0.3 mm 0 mps 737 mmHg 60%
    01:00 +8°C° 0.2 mm 0 mps 737 mmHg 61%
    02:00 +9°C° 0.2 mm 1 mps 737 mmHg 62%
    03:00 +9°C° 0.2 mm 1 mps 737 mmHg 63%
    04:00 +8°C° 0 mm 1 mps 737 mmHg 62%
    05:00 +8°C° 0 mm 1 mps 737 mmHg 61%
    06:00 +8°C° 0 mm 1 mps 737 mmHg 60%
    07:00 +9°C° 0.1 mm 1 mps 737 mmHg 59%
    08:00 +9°C° 0.1 mm 1 mps 738 mmHg 57%
    09:00 +10°C° 0.1 mm 1 mps 738 mmHg 55%
    10:00 +9°C° 0.4 mm 2 mps 738 mmHg 56%
    11:00 +9°C° 0.4 mm 2 mps 737 mmHg 57%
    12:00 +9°C° 0.4 mm 2 mps 737 mmHg 58%
    13:00 +9°C° 0.3 mm 2 mps 737 mmHg 57%
    14:00 +10°C° 0.3 mm 2 mps 737 mmHg 56%
    15:00 +10°C° 0.3 mm 2 mps 737 mmHg 55%
    16:00 +9°C° 0.4 mm 2 mps 738 mmHg 59%
    17:00 +9°C° 0.4 mm 2 mps 738 mmHg 64%
    18:00 +9°C° 0.4 mm 1 mps 738 mmHg 68%
    19:00 +9°C° 0.6 mm 1 mps 739 mmHg 70%
    20:00 +8°C° 0.6 mm 1 mps 739 mmHg 73%
    21:00 +7°C° 0.6 mm 0 mps 740 mmHg 75%
    22:00 +7°C° 0.6 mm 0 mps 740 mmHg 76%
    23:00 +7°C° 0.6 mm 0 mps 740 mmHg 77%

    30 March, Saturday

    Time Temperature Precipitation Wind Pressure Humidity
    00:00 +7°C° 0.6 mm 0 mps 740 mmHg 77%
    01:00 +6°C° 0.6 mm 0 mps 740 mmHg 78%
    02:00 +6°C° 0.6 mm 0 mps 740 mmHg 79%
    03:00 +6°C° 0.6 mm 0 mps 740 mmHg 80%
    04:00 +6°C° 0.6 mm 0 mps 740 mmHg 82%
    05:00 +7°C° 0.6 mm 1 mps 740 mmHg 83%
    06:00 +7°C° 0.6 mm 1 mps 741 mmHg 84%
    07:00 +7°C° 0.4 mm 1 mps 741 mmHg 83%
    08:00 +6°C° 0.5 mm 2 mps 741 mmHg 82%
    09:00 +7°C° 0.5 mm 2 mps 741 mmHg 81%
    10:00 +7°C° 0.3 mm 2 mps 741 mmHg 80%
    11:00 +7°C° 0.3 mm 3 mps 741 mmHg 79%
    12:00 +8°C° 0.3 mm 3 mps 741 mmHg 78%
    13:00 +8°C° 0.1 mm 3 mps 740 mmHg 76%
    14:00 +9°C° 0.1 mm 2 mps 740 mmHg 74%
    15:00 +9°C° 0.1 mm 2 mps 740 mmHg 73%
    16:00 +9°C° 0 mm 2 mps 740 mmHg 76%
    17:00 +8°C° 0 mm 2 mps 740 mmHg 80%
    18:00 +7°C° 0 mm 2 mps 741 mmHg 84%
    19:00 +7°C° 0 mm 2 mps 741 mmHg 85%
    20:00 +7°C° 0 mm 2 mps 741 mmHg 86%
    21:00 +6°C° 0 mm 2 mps 742 mmHg 87%
    22:00 +6°C° 0 mm 2 mps 741 mmHg 86%
    23:00 +7°C° 0 mm 1 mps 741 mmHg 85%

    31 March, Sunday

    Time Temperature Precipitation Wind Pressure Humidity
    00:00 +7°C° 0 mm 1 mps 741 mmHg 83%
    01:00 +7°C° 0 mm 1 mps 740 mmHg 84%
    02:00 +7°C° 0 mm 1 mps 740 mmHg 84%
    03:00 +7°C° 0 mm 1 mps 740 mmHg 84%
    04:00 +7°C° 0 mm 1 mps 739 mmHg 85%
    05:00 +7°C° 0 mm 1 mps 739 mmHg 85%
    06:00 +7°C° 0 mm 1 mps 739 mmHg 85%
    07:00 +7°C° 0.1 mm 1 mps 739 mmHg 82%
    08:00 +7°C° 0.1 mm 2 mps 738 mmHg 79%
    09:00 +8°C° 0.1 mm 2 mps 738 mmHg 76%
    10:00 +9°C° 0 mm 3 mps 738 mmHg 73%
    11:00 +10°C° 0 mm 3 mps 737 mmHg 70%
    12:00 +11°C° 0 mm 3 mps 736 mmHg 67%
    13:00 +11°C° 0 mm 4 mps 736 mmHg 67%
    14:00 +12°C° 0 mm 4 mps 735 mmHg 67%
    15:00 +12°C° 0 mm 4 mps 734 mmHg 67%
    16:00 +11°C° 0.1 mm 3 mps 734 mmHg 70%
    17:00 +11°C° 0.1 mm 3 mps 734 mmHg 73%
    18:00 +10°C° 0.1 mm 2 mps 734 mmHg 75%
    19:00 +10°C° 0.2 mm 2 mps 734 mmHg 76%
    20:00 +10°C° 0.2 mm 2 mps 734 mmHg 76%
    21:00 +10°C° 0.2 mm 2 mps 734 mmHg 76%
    22:00 +9°C° 0 mm 2 mps 733 mmHg 76%
    23:00 +9°C° 0 mm 2 mps 732 mmHg 77%
    Show more